DN9EM-1 Weather Reports


time (UTC)temp
C
wind
direction
speed
KPH
gust
KPH
rain 1hr
cm
rain 24hr
cm
rain mn
cm
humidity
%
barometer
mb
20260506134516 13 29 1.6 6.4 0.00 0.00 0.00 49 1010.9
20260506133614 13 37 1.6 9.7 0.00 0.00 0.00 48 1010.8
20260506132611 13 18 1.6 6.4 0.00 0.00 0.00 48 1010.9
20260506131603 13 358 1.6 6.4 0.00 0.00 0.00 47 1010.7
20260506130601 13 134 1.6 6.4 0.00 0.00 0.00 46 1010.7
20260506125552 13 340 1.6 9.7 0.00 0.00 0.00 45 1010.7
20260506124550 14 114 3.2 9.7 0.00 0.00 0.00 45 1010.6
20260506123547 14 10 1.6 6.4 0.00 0.00 0.00 44 1010.6
20260506122539 14 10 3.2 11.3 0.00 0.00 0.00 44 1010.5
20260506121537 15 11 1.6 6.4 0.00 0.00 0.00 43 1010.4
20260506120528 14 23 3.2 6.4 0.00 0.00 0.00 43 1010.4
20260506115526 14 49 1.6 6.4 0.00 0.00 0.00 43 1010.3
20260506114523 14 94 3.2 11.3 0.00 0.00 0.00 42 1010.3
20260506113515 14 40 3.2 11.3 0.00 0.00 0.00 41 1010.2
20260506112613 14 16 1.6 6.4 0.00 0.00 0.00 41 1010.3
20260506111604 13 37 1.6 6.4 0.00 0.00 0.00 43 1010.4
20260506110602 13 12 3.2 9.7 0.00 0.00 0.00 43 1010.3
20260506105559 13 354 3.2 9.7 0.00 0.00 0.00 44 1010.4
20260506104551 13 95 1.6 6.4 0.00 0.00 0.00 44 1010.4
20260506103549 13 18 3.2 11.3 0.00 0.00 0.00 44 1010.4
20260506102540 13 73 1.6 6.4 0.00 0.00 0.00 45 1010.4
20260506101538 13 2 1.6 6.4 0.00 0.00 0.00 46 1010.4
20260506100535 13 122 1.6 6.4 0.00 0.00 0.00 46 1010.4
20260506095527 12 27 1.6 6.4 0.00 0.00 0.00 46 1010.6
20260506094525 12 18 3.2 14.5 0.00 0.00 0.00 46 1010.5
20260506093516 12 62 1.6 6.4 0.00 0.00 0.00 48 1010.6
20260506092614 12 58 3.2 6.4 0.00 0.00 0.00 48 1010.6
20260506091612 12 281 1.6 6.4 0.00 0.00 0.00 49 1010.6
20260506090603 12 354 1.6 6.4 0.00 0.00 0.00 51 1010.7
20260506085600 12 348 1.6 9.7 0.00 0.00 0.00 51 1010.7
20260506084553 11 54 1.6 6.4 0.00 0.00 0.00 52 1010.7
20260506083550 11 11 0.0 3.2 0.00 0.00 0.00 53 1010.6
20260506082547 11 2 1.6 3.2 0.00 0.00 0.00 53 1010.6
20260506081539 11 108 1.6 6.4 0.00 0.00 0.00 53 1010.6
20260506080536 11 27 1.6 6.4 0.00 0.00 0.00 55 1010.6
20260506073523 10 0 1.6 6.4 0.00 0.00 0.00 52 1010.5
20260506072515 10 0 1.6 6.4 0.00 0.00 0.00 52 1010.6
20260506071613 10 117 1.6 11.3 0.00 0.00 0.00 53 1010.5
20260506070605 10 14 1.6 6.4 0.00 0.00 0.00 54 1010.5
20260506061541 9 17 1.6 6.4 0.00 0.00 0.00 58 1010.4
20260506060538 9 0.0 3.2 0.00 0.00 0.00 59 1010.4
20260506050611 8 0 1.6 9.7 0.00 0.00 0.00 61 1010.4
20260506044601 8 45 0.0 3.2 0.00 0.00 0.00 63 1010.4
20260506043552 8 23 1.6 6.4 0.00 0.00 0.00 65 1010.6
20260506042550 8 23 0.0 3.2 0.00 0.00 0.00 67 1010.6
20260506041547 8 0.0 3.2 0.00 0.00 0.00 68 1010.5
20260506040539 8 0.0 3.2 0.00 0.00 0.00 71 1010.4
20260506035537 7 0.0 0.0 0.00 0.00 0.00 79 1010.4
20260506034528 7 0.0 3.2 0.00 0.00 0.00 79 1010.5
20260506033526 7 0.0 3.2 0.00 0.00 0.00 79 1010.4
20260506032523 7 0.0 3.2 0.00 0.00 0.00 80 1010.5
20260506031515 7 0.0 0.0 0.00 0.00 0.00 82 1010.6
20260506030613 7 0.0 0.0 0.00 0.00 0.00 83 1010.6
20260506025604 7 0.0 0.0 0.00 0.00 0.00 82 1010.6
20260506024602 7 0.0 0.0 0.00 0.00 0.00 84 1010.6
20260506023559 7 0.0 3.2 0.00 0.00 0.00 84 1010.8
20260506022552 7 0.0 0.0 0.00 0.00 0.00 83 1010.8
20260506021549 7 0.0 3.2 0.00 0.00 0.00 83 1011.1
20260506020540 6 0.0 0.0 0.00 0.00 0.00 83 1011.3
20260506015538 7 0.0 0.0 0.00 0.00 0.00 82 1011.2
20260506014535 7 0.0 3.2 0.00 0.00 0.00 80 1011.3
20260506013528 7 0.0 0.0 0.00 0.00 0.00 79 1011.2
20260506012525 7 0.0 0.0 0.00 0.00 0.00 80 1011.2
20260506011516 7 0.0 0.0 0.00 0.00 0.00 79 1011.2
20260506010614 8 0.0 0.0 0.00 0.00 0.00 79 1011.3
20260506005611 8 0.0 0.0 0.00 0.00 0.00 79 1011.3
20260506004604 8 0.0 0.0 0.00 0.00 0.00 79 1011.5
20260506003601 8 0.0 3.2 0.00 0.00 0.00 80 1011.6
20260506002553 8 0.0 0.0 0.00 0.00 0.00 80 1011.7
20260506001550 8 0.0 0.0 0.00 0.00 0.00 79 1011.7
20260506000547 8 0.0 0.0 0.00 0.00 0.00 79 1011.6
20260505235539 8 0.0 0.0 0.00 0.00 0.00 79 1011.9
20260505234536 8 0.0 0.0 0.00 0.00 0.00 78 1011.7
20260505233529 8 0.0 0.0 0.00 0.00 0.00 78 1011.8
20260505232526 8 0.0 0.0 0.00 0.00 0.00 78 1011.9
20260505231523 8 0.0 3.2 0.00 0.00 0.00 78 1011.8
20260505230515 8 0.0 0.0 0.00 0.00 0.00 77 1011.8
20260505225613 8 0.0 3.2 0.00 0.00 0.00 77 1011.8
20260505224605 8 0.0 3.2 0.00 0.00 0.00 77 1011.9
20260505223602 8 0.0 0.0 0.00 0.00 0.00 76 1012.0
20260505222600 8 0.0 3.2 0.00 0.00 0.00 76 1012.0
20260505220549 8 0.0 3.2 0.00 0.00 0.00 74 1012.1
20260505215541 8 0.0 3.2 0.00 0.00 0.00 74 1012.3
20260505214538 9 0.0 0.0 0.00 0.00 0.00 73 1012.2
20260505213536 9 0.0 0.0 0.00 0.00 0.00 72 1012.2
20260505212527 9 0.0 3.2 0.00 0.00 0.00 72 1012.3
20260505211525 9 29 0.0 3.2 0.00 0.00 0.00 71 1012.3
20260505210516 10 0 0.0 3.2 0.00 0.00 0.00 70 1012.4
20260505205614 10 0.0 3.2 0.00 0.00 0.00 68 1012.3
20260505204611 10 0.0 3.2 0.00 0.00 0.00 67 1012.3
20260505203603 10 0.0 3.2 0.00 0.00 0.00 65 1012.3
20260505202600 10 0.0 0.0 0.00 0.00 0.00 65 1012.2
20260505201612 10 0.0 0.0 0.00 0.00 0.00 66 1012.2
20260505200610 10 0.0 0.0 0.00 0.00 0.00 64 1012.1
20260505195607 10 0.0 3.2 0.00 0.00 0.00 65 1012.1
20260505194605 11 0.0 0.0 0.00 0.00 0.00 63 1012.1
20260505193602 11 0.0 0.0 0.00 0.00 0.00 62 1012.0
20260505192600 11 0.0 0.0 0.00 0.00 0.00 61 1011.9
20260505191557 11 0.0 0.0 0.00 0.00 0.00 62 1011.7
20260505190555 12 0.0 3.2 0.00 0.00 0.00 62 1011.7
20260505185552 12 0.0 3.2 0.00 0.00 0.00 62 1011.8
20260505184549 12 0.0 0.0 0.00 0.00 0.00 62 1011.8
20260505183547 12 0.0 0.0 0.00 0.00 0.00 62 1011.8
20260505182544 12 0.0 0.0 0.00 0.00 0.00 61 1011.8
20260505181542 12 23 0.0 3.2 0.00 0.00 0.00 60 1011.8
20260505180539 12 90 0.0 6.4 0.00 0.00 0.00 61 1011.9
20260505175536 13 23 0.0 3.2 0.00 0.00 0.00 61 1011.8
20260505174534 13 7 0.0 3.2 0.00 0.00 0.00 62 1011.8
20260505173531 13 354 0.0 6.4 0.00 0.00 0.00 61 1011.9
20260505172529 13 48 1.6 6.4 0.00 0.00 0.00 60 1011.8
20260505171526 13 180 0.0 6.4 0.00 0.00 0.00 61 1011.9
20260505170523 13 8 1.6 3.2 0.00 0.00 0.00 61 1012.0
20260505165521 13 15 0.0 3.2 0.00 0.00 0.00 61 1011.9
20260505164518 13 23 0.0 3.2 0.00 0.00 0.00 61 1012.1
20260505163516 13 0.0 3.2 0.00 0.00 0.00 62 1012.1
20260505162613 13 3 1.6 6.4 0.00 0.00 0.00 61 1012.1
20260505161611 13 13 1.6 6.4 0.00 0.00 0.00 61 1012.1
20260505160608 13 10 1.6 6.4 0.00 0.00 0.00 61 1012.3
20260505152558 13 14 1.6 6.4 0.00 0.00 0.00 61 1012.4
20260505151555 14 130 0.0 6.4 0.00 0.00 0.00 61 1012.4
20260505150553 14 58 1.6 6.4 0.00 0.00 0.00 61 1012.4
20260505140538 14 23 0.0 6.4 0.00 0.00 0.00 61 1012.5